Home   Weather   Mayhill   Past weeks
Flag for USA

Past Weather in Mayhill, New Mexico, USA — Yesterday and Last 2 Weeks

Now
99 °F

Sunny.


Feels Like: 95 °F
Forecast: 97 / 72 °F
Wind: 9 mph from South

Location: Alamogordo-White

Current Time: Jul 19, 2019 at 3:25:53 pm

Latest Report: Jul 19, 2019 at 2:35 pm


Visibility: 10 mi

Pressure: 29.96 "Hg

Humidity: 19%

Dew Point: 50 °F

Location of MayhillLocation

Past Weather in Mayhill — Graph

°F

Mayhill Temperature Yesterday

Maximum temperature yesterday: 99 °F (at 3:15 pm)
Minimum temperature yesterday: 75 °F (at 5:35 am)
Average temperature yesterday: 84 °F

High & Low Weather Summary for the Past Weeks

 TemperatureHumidityPressure
High100 °F (Jul 5, 3:55 pm)100% (Jul 8, 3:35 am)30.24 "Hg (Jul 8, 3:35 am)
Low59 °F (Jul 8, 4:15 am)7% (Jul 5, 1:35 pm)29.90 "Hg (Jul 18, 6:35 pm)
Average83 °F33%30.09 "Hg
* Reported Jul 4 1:15 pm — Jul 19 1:55 pm, Mayhill. Weather by CustomWeather, © 2019

Note: Actual official high and low records may vary slightly from our data, if they occured in-between our weather recording intervals... More about our weather records

Advertising

Mayhill Weather History for the Previous 24 Hours

Scroll right to see more
 ConditionsComfort  
Time TempWeatherWind HumidityBarometerVisibility
1:55 pm
Fri, Jul 19
99 °FSunny.13 mph19%29.97 "Hg10 mi
1:35 pm97 °FSunny.14 mph20%29.98 "Hg10 mi
1:15 pm97 °FSunny.12 mph22%30.00 "Hg10 mi
12:55 pm95 °FSunny.10 mph23%30.00 "Hg10 mi
12:35 pm95 °FSunny.17 mph22%30.01 "Hg10 mi
12:15 pm93 °FSunny.14 mph24%30.01 "Hg10 mi
11:55 am93 °FThundershowers. Sunny.14 mph24%30.01 "Hg10 mi
11:35 am93 °FThundershowers. Sunny.16 mph26%30.00 "Hg10 mi
11:15 am91 °FSunny.22 mph26%30.01 "Hg10 mi
10:55 am91 °FSunny.18 mph26%30.01 "Hg10 mi
10:35 am90 °FSunny.18 mph29%30.01 "Hg10 mi
10:15 am90 °FSunny.17 mph29%30.01 "Hg10 mi
9:55 am88 °FSunny.16 mph31%30.02 "Hg10 mi
9:35 am86 °FSunny.17 mph33%30.02 "Hg9 mi
9:15 am84 °FSunny.20 mph35%30.02 "Hg10 mi
8:55 am84 °FSunny.17 mph35%30.02 "Hg10 mi
8:35 am84 °FSunny.17 mph35%30.01 "Hg10 mi
8:15 am82 °FSunny.17 mph37%30.01 "Hg10 mi
7:35 am79 °FSunny.8 mph42%29.99 "Hg10 mi
7:15 am77 °FSunny.9 mph44%29.99 "Hg10 mi
6:55 am75 °FSunny.10 mph47%29.99 "Hg10 mi
6:35 am73 °FSunny.9 mph50%29.99 "Hg10 mi
6:15 am75 °FSunny.10 mph47%29.98 "Hg10 mi
5:55 am75 °FClear.10 mph47%29.99 "Hg10 mi
5:35 am77 °FClear.10 mph44%29.98 "Hg10 mi
5:15 am75 °FClear.12 mph47%29.97 "Hg10 mi
4:55 am77 °FClear.8 mph44%29.97 "Hg10 mi
4:35 am77 °FClear.10 mph44%29.97 "Hg10 mi
4:15 am81 °FClear.9 mph39%29.97 "Hg10 mi
3:55 am81 °FClear.10 mph34%29.97 "Hg10 mi
3:35 am81 °FClear.9 mph32%29.97 "Hg10 mi
3:15 am77 °FClear.10 mph36%29.97 "Hg10 mi
2:55 am75 °FClear.7 mph39%29.98 "Hg10 mi
2:35 am73 °FClear.6 mph41%29.98 "Hg10 mi
1:55 am75 °FClear.7 mph39%29.98 "Hg10 mi
1:35 am79 °FClear.8 mph34%29.98 "Hg10 mi
1:15 am79 °FClear.3 mph37%29.97 "Hg10 mi
12:55 am79 °FClear.5 mph37%29.97 "Hg10 mi
12:35 am79 °FClear.8 mph37%29.97 "Hg10 mi
12:15 am81 °FClear.7 mph34%29.98 "Hg10 mi
11:55 pm
Thu, Jul 18
77 °FClear.9 mph39%29.98 "Hg10 mi
11:35 pm81 °FClear.6 mph32%29.98 "Hg10 mi
11:15 pm81 °FClear.6 mph32%29.98 "Hg10 mi
10:55 pm82 °FClear.7 mph30%29.98 "Hg10 mi
10:35 pm84 °FClear.6 mph31%29.97 "Hg10 mi
10:15 pm84 °FClear.5 mph29%29.97 "Hg10 mi
9:55 pm86 °FClear.7 mph27%29.96 "Hg10 mi
9:35 pm86 °FClear.10 mph25%29.96 "Hg10 mi
9:15 pm84 °FClear.9 mph29%29.95 "Hg10 mi
8:55 pm86 °FClear.9 mph27%29.94 "Hg10 mi
8:35 pm86 °FClear.12 mph27%29.93 "Hg10 mi
8:15 pm90 °FClear.16 mph26%29.93 "Hg10 mi
7:55 pm93 °FSunny.17 mph19%29.93 "Hg10 mi
7:35 pm95 °FSunny.3 mph18%29.91 "Hg10 mi
7:15 pm95 °FSunny.5 mph19%29.91 "Hg10 mi
6:55 pm95 °FSunny.6 mph18%29.90 "Hg10 mi
6:35 pm95 °FSunny.9 mph15%29.90 "Hg10 mi
6:15 pm95 °FSunny.13 mph15%29.91 "Hg10 mi
5:55 pm95 °FSunny.22 mph16%29.92 "Hg10 mi
5:35 pm90 °FBroken clouds.23 mph22%29.94 "Hg9 mi
5:15 pm91 °FPartly sunny.26 mph23%29.95 "Hg9 mi
4:55 pm82 °FBroken clouds.13 mph42%29.96 "Hg10 mi
4:35 pm86 °FLight rain. Scattered clouds.21 mph38%29.98 "Hg5 mi
4:15 pm99 °FThundershowers. Sunny.35 mph17%29.97 "Hg7 mi
3:55 pm99 °FSunny.15 mph22%29.96 "Hg10 mi
3:35 pm99 °FSunny.14 mph22%29.97 "Hg10 mi
3:15 pm99 °FThundershowers. Sunny.6 mph22%29.97 "Hg10 mi
Weather by CustomWeather, © 2019

See weather overview